Location: �chemir�
(47.5500°N, 0.1667°W)
Time: 00:04:07
(UTC+02:00)

ISS - Visible Passes

Search period start: 24 August 2019 00:00
Search period end: 03 September 2019 00:00
Orbit: 410 x 421 km, 51.6° (Epoch: 24 August)

Date Brightness Start Highest point End Pass type
(mag) Time Alt. Az. Time Alt. Az. Time Alt. Az.
27 Aug -1.2 06:24:23 10° S 06:26:25 15° SE 06:28:27 10° E visible
29 Aug -2.5 06:22:06 10° SSW 06:25:09 33° SE 06:28:13 10° ENE visible
30 Aug -1.9 05:35:12 18° S 05:36:27 22° SE 05:39:06 10° E visible
31 Aug -1.2 04:48:24 13° ESE 04:48:24 13° ESE 04:49:35 10° ESE visible
31 Aug -3.7 06:21:17 14° WSW 06:24:01 73° SSE 06:27:22 10° ENE visible
01 Sep -3.2 05:34:25 38° S 05:35:12 48° SSE 05:38:27 10° ENE visible
02 Sep -1.9 04:47:30 24° ESE 04:47:30 24° ESE 04:49:25 10° E visible
02 Sep -3.5 06:20:23 15° W 06:23:00 62° NNW 06:26:20 10° ENE visible
